| time (UTC) | temp F | wind direction | speed knots | gust knots | rain 1hr in | rain 24hr in | rain mn in | humidity % | barometer mb |
| 20260507040516 | 63 | 0.0 | 0.9 | 0.00 | 0.00 | 0.00 | 91 | 1009.2 | |
| 20260507035516 | 64 | 0.0 | 0.0 | 0.00 | 0.00 | 0.00 | 90 | 1009.2 | |
| 20260507034516 | 65 | 293 | 0.9 | 3.5 | 0.00 | 0.00 | 0.00 | 89 | 1008.9 |
| 20260507033516 | 66 | 225 | 0.9 | 2.6 | 0.00 | 0.00 | 0.00 | 86 | 1008.8 |
| 20260507032516 | 66 | 0.0 | 0.9 | 0.00 | 0.00 | 0.00 | 85 | 1008.5 | |
| 20260507031516 | 66 | 0.0 | 1.7 | 0.00 | 0.00 | 0.00 | 85 | 1008.5 | |
| 20260507030516 | 67 | 225 | 0.9 | 3.5 | 0.00 | 0.00 | 0.00 | 85 | 1008.6 |
| 20260507025536 | 67 | 225 | 1.7 | 3.5 | 0.00 | 0.00 | 0.00 | 84 | 1008.6 |
| 20260507024536 | 67 | 225 | 0.9 | 1.7 | 0.00 | 0.00 | 0.00 | 84 | 1008.5 |
| 20260507023516 | 67 | 180 | 2.6 | 3.5 | 0.00 | 0.00 | 0.00 | 84 | 1008.5 |
| 20260507022516 | 67 | 203 | 0.9 | 2.6 | 0.00 | 0.00 | 0.00 | 83 | 1008.5 |
| 20260507021517 | 67 | 180 | 1.7 | 3.5 | 0.00 | 0.00 | 0.00 | 83 | 1008.6 |
| 20260507020516 | 67 | 225 | 2.6 | 5.2 | 0.00 | 0.00 | 0.00 | 83 | 1009.0 |
| 20260507015516 | 67 | 180 | 1.7 | 3.5 | 0.00 | 0.00 | 0.00 | 82 | 1008.9 |
| 20260507014537 | 67 | 203 | 2.6 | 6.1 | 0.00 | 0.00 | 0.00 | 82 | 1008.9 |
| 20260507013516 | 68 | 203 | 0.9 | 2.6 | 0.00 | 0.00 | 0.00 | 81 | 1008.8 |
| 20260507012516 | 68 | 180 | 0.9 | 1.7 | 0.00 | 0.00 | 0.00 | 81 | 1009.0 |
| 20260507011617 | 68 | 180 | 2.6 | 5.2 | 0.00 | 0.00 | 0.00 | 81 | 1009.0 |
| 20260507010516 | 68 | 203 | 0.9 | 1.7 | 0.00 | 0.00 | 0.00 | 81 | 1008.5 |
| 20260507005516 | 68 | 203 | 0.9 | 1.7 | 0.00 | 0.00 | 0.00 | 81 | 1008.4 |
| 20260507004516 | 68 | 203 | 0.9 | 2.6 | 0.00 | 0.00 | 0.00 | 80 | 1008.4 |
| 20260507003516 | 68 | 203 | 0.9 | 0.9 | 0.00 | 0.00 | 0.00 | 80 | 1008.3 |
| 20260507002516 | 69 | 0.0 | 0.0 | 0.00 | 0.00 | 0.00 | 79 | 1008.3 | |
| 20260507001517 | 69 | 203 | 0.9 | 2.6 | 0.00 | 0.00 | 0.00 | 78 | 1008.3 |
| 20260507000517 | 69 | 0.0 | 1.7 | 0.00 | 0.00 | 0.00 | 78 | 1008.3 | |
| 20260506235516 | 69 | 248 | 0.9 | 2.6 | 0.00 | 0.00 | 0.00 | 78 | 1008.3 |
| 20260506234557 | 69 | 203 | 4.3 | 6.1 | 0.00 | 0.00 | 0.00 | 77 | 1008.1 |
| 20260506233516 | 69 | 225 | 1.7 | 3.5 | 0.00 | 0.00 | 0.00 | 77 | 1007.9 |
| 20260506232516 | 69 | 0.0 | 1.7 | 0.00 | 0.00 | 0.00 | 77 | 1008.0 | |
| 20260506231516 | 70 | 225 | 4.3 | 6.1 | 0.00 | 0.00 | 0.00 | 76 | 1007.7 |
| 20260506230516 | 70 | 225 | 4.3 | 7.0 | 0.00 | 0.00 | 0.00 | 77 | 1007.9 |
| 20260506225537 | 70 | 225 | 3.5 | 5.2 | 0.00 | 0.00 | 0.00 | 77 | 1007.9 |
| 20260506224517 | 70 | 203 | 4.3 | 8.7 | 0.00 | 0.00 | 0.00 | 76 | 1007.9 |
| 20260506223516 | 70 | 203 | 7.0 | 12.2 | 0.00 | 0.00 | 0.00 | 76 | 1007.8 |
| 20260506222516 | 70 | 180 | 6.1 | 10.4 | 0.00 | 0.00 | 0.00 | 76 | 1007.8 |
| 20260506221537 | 70 | 180 | 1.7 | 6.1 | 0.00 | 0.00 | 0.00 | 76 | 1007.8 |
| 20260506220516 | 70 | 270 | 3.5 | 5.2 | 0.00 | 0.00 | 0.00 | 77 | 1007.8 |
| 20260506215516 | 69 | 270 | 3.5 | 5.2 | 0.00 | 0.00 | 0.00 | 77 | 1007.8 |
| 20260506214517 | 69 | 203 | 4.3 | 7.0 | 0.00 | 0.00 | 0.00 | 77 | 1007.8 |
| 20260506213516 | 69 | 203 | 3.5 | 7.0 | 0.00 | 0.00 | 0.00 | 77 | 1007.6 |
| 20260506212516 | 69 | 203 | 6.1 | 9.6 | 0.00 | 0.00 | 0.00 | 77 | 1007.5 |
| 20260506211516 | 69 | 180 | 3.5 | 5.2 | 0.00 | 0.00 | 0.00 | 77 | 1007.4 |
| 20260506210516 | 69 | 180 | 2.6 | 5.2 | 0.00 | 0.00 | 0.00 | 77 | 1007.2 |
| 20260506205536 | 69 | 203 | 2.6 | 5.2 | 0.00 | 0.00 | 0.00 | 78 | 1007.0 |
| 20260506204516 | 68 | 203 | 5.2 | 9.6 | 0.00 | 0.00 | 0.00 | 79 | 1007.2 |
| 20260506203517 | 68 | 180 | 3.5 | 5.2 | 0.00 | 0.00 | 0.00 | 79 | 1007.2 |
| 20260506202516 | 68 | 225 | 4.3 | 6.1 | 0.00 | 0.00 | 0.00 | 79 | 1007.3 |
| 20260506201516 | 67 | 180 | 3.5 | 6.1 | 0.00 | 0.00 | 0.00 | 80 | 1007.4 |
| 20260506200516 | 67 | 203 | 2.6 | 4.3 | 0.00 | 0.00 | 0.00 | 80 | 1007.5 |
| 20260506195516 | 67 | 225 | 3.5 | 6.1 | 0.00 | 0.00 | 0.00 | 81 | 1007.6 |
| 20260506194516 | 66 | 203 | 2.6 | 4.3 | 0.00 | 0.00 | 0.00 | 82 | 1007.7 |
| 20260506193517 | 66 | 248 | 2.6 | 4.3 | 0.00 | 0.00 | 0.00 | 83 | 1007.9 |
| 20260506192516 | 66 | 158 | 1.7 | 4.3 | 0.00 | 0.00 | 0.00 | 83 | 1007.9 |
| 20260506191516 | 66 | 203 | 4.3 | 7.0 | 0.00 | 0.00 | 0.00 | 82 | 1008.0 |
| 20260506190517 | 67 | 203 | 5.2 | 6.1 | 0.00 | 0.00 | 0.00 | 79 | 1008.0 |
| 20260506185517 | 67 | 203 | 4.3 | 7.0 | 0.00 | 0.00 | 0.00 | 78 | 1008.0 |
| 20260506184517 | 67 | 203 | 5.2 | 8.7 | 0.00 | 0.00 | 0.00 | 79 | 1008.1 |
| 20260506183517 | 67 | 225 | 5.2 | 8.7 | 0.00 | 0.00 | 0.00 | 77 | 1008.1 |
| 20260506182516 | 70 | 180 | 7.0 | 11.3 | 0.00 | 0.00 | 0.00 | 72 | 1008.1 |
| 20260506181517 | 71 | 203 | 5.2 | 7.8 | 0.00 | 0.00 | 0.00 | 69 | 1008.1 |
| 20260506180516 | 71 | 158 | 3.5 | 8.7 | 0.00 | 0.00 | 0.00 | 69 | 1008.1 |
| 20260506175516 | 71 | 158 | 6.1 | 11.3 | 0.00 | 0.00 | 0.00 | 68 | 1008.2 |
| 20260506174517 | 72 | 203 | 5.2 | 9.6 | 0.00 | 0.00 | 0.00 | 69 | 1008.4 |
| 20260506173536 | 72 | 180 | 4.3 | 12.2 | 0.00 | 0.00 | 0.00 | 68 | 1008.4 |
| 20260506172517 | 72 | 225 | 7.0 | 11.3 | 0.00 | 0.00 | 0.00 | 68 | 1008.4 |
| 20260506171517 | 72 | 180 | 7.0 | 15.6 | 0.00 | 0.00 | 0.00 | 69 | 1008.6 |
| 20260506170517 | 70 | 158 | 4.3 | 9.6 | 0.00 | 0.00 | 0.00 | 70 | 1008.7 |
| 20260506165517 | 70 | 203 | 1.7 | 4.3 | 0.00 | 0.00 | 0.00 | 70 | 1009.0 |
| 20260506164516 | 70 | 203 | 3.5 | 6.1 | 0.00 | 0.00 | 0.00 | 70 | 1009.4 |
| 20260506163517 | 70 | 225 | 6.1 | 13.0 | 0.00 | 0.00 | 0.00 | 70 | 1009.8 |
| 20260506162516 | 70 | 203 | 4.3 | 8.7 | 0.00 | 0.00 | 0.00 | 69 | 1009.9 |
| 20260506161517 | 71 | 225 | 3.5 | 6.1 | 0.00 | 0.00 | 0.00 | 67 | 1010.0 |
| 20260506160517 | 71 | 225 | 7.0 | 8.7 | 0.00 | 0.00 | 0.00 | 66 | 1010.0 |
| 20260506155516 | 72 | 180 | 4.3 | 8.7 | 0.00 | 0.00 | 0.00 | 64 | 1009.9 |
| 20260506154537 | 73 | 203 | 4.3 | 7.0 | 0.00 | 0.00 | 0.00 | 63 | 1009.9 |
| 20260506153537 | 73 | 203 | 7.0 | 11.3 | 0.00 | 0.00 | 0.00 | 62 | 1010.0 |
| 20260506152517 | 72 | 203 | 6.1 | 9.6 | 0.00 | 0.00 | 0.00 | 64 | 1010.0 |
| 20260506151516 | 72 | 203 | 4.3 | 8.7 | 0.00 | 0.00 | 0.00 | 63 | 1010.0 |
| 20260506150517 | 72 | 180 | 5.2 | 7.8 | 0.00 | 0.00 | 0.00 | 62 | 1010.1 |
| 20260506145517 | 73 | 203 | 7.8 | 14.8 | 0.00 | 0.00 | 0.00 | 62 | 1010.0 |
| 20260506144516 | 73 | 158 | 3.5 | 7.0 | 0.00 | 0.00 | 0.00 | 62 | 1009.8 |
| 20260506143517 | 73 | 180 | 4.3 | 7.0 | 0.00 | 0.00 | 0.00 | 63 | 1009.9 |
| 20260506142517 | 73 | 203 | 6.1 | 14.8 | 0.00 | 0.00 | 0.00 | 63 | 1010.0 |
| 20260506141517 | 72 | 203 | 2.6 | 6.1 | 0.00 | 0.00 | 0.00 | 65 | 1009.9 |
| 20260506140517 | 72 | 203 | 3.5 | 6.1 | 0.00 | 0.00 | 0.00 | 65 | 1009.7 |
| 20260506135517 | 72 | 180 | 2.6 | 4.3 | 0.00 | 0.00 | 0.00 | 66 | 1009.9 |
| 20260506134517 | 72 | 180 | 5.2 | 9.6 | 0.00 | 0.00 | 0.00 | 66 | 1010.0 |
| 20260506133517 | 71 | 203 | 5.2 | 10.4 | 0.00 | 0.00 | 0.00 | 66 | 1010.3 |
| 20260506132517 | 71 | 180 | 3.5 | 9.6 | 0.00 | 0.00 | 0.00 | 69 | 1010.3 |
| 20260506131516 | 70 | 203 | 4.3 | 6.1 | 0.00 | 0.00 | 0.00 | 70 | 1010.7 |
| 20260506130516 | 69 | 203 | 6.1 | 12.2 | 0.00 | 0.00 | 0.00 | 71 | 1010.5 |
| 20260506125517 | 69 | 158 | 6.1 | 11.3 | 0.00 | 0.00 | 0.00 | 73 | 1010.5 |
| 20260506124516 | 68 | 180 | 2.6 | 6.1 | 0.00 | 0.00 | 0.00 | 75 | 1010.5 |
| 20260506123517 | 66 | 180 | 6.1 | 8.7 | 0.00 | 0.00 | 0.00 | 76 | 1010.5 |
| 20260506122517 | 66 | 203 | 1.7 | 5.2 | 0.00 | 0.00 | 0.00 | 77 | 1010.5 |
| 20260506121517 | 66 | 180 | 4.3 | 7.8 | 0.00 | 0.00 | 0.00 | 77 | 1010.6 |
| 20260506120517 | 65 | 180 | 3.5 | 7.0 | 0.00 | 0.00 | 0.00 | 78 | 1010.6 |
| 20260506115517 | 65 | 203 | 6.1 | 9.6 | 0.00 | 0.00 | 0.00 | 78 | 1010.6 |
| 20260506114517 | 65 | 180 | 5.2 | 7.0 | 0.00 | 0.00 | 0.00 | 79 | 1010.8 |
| 20260506113517 | 64 | 180 | 4.3 | 7.0 | 0.00 | 0.00 | 0.00 | 81 | 1010.9 |
| 20260506112537 | 63 | 180 | 1.7 | 2.6 | 0.00 | 0.00 | 0.00 | 82 | 1010.9 |
| 20260506111537 | 63 | 203 | 2.6 | 4.3 | 0.00 | 0.00 | 0.00 | 83 | 1011.0 |
| 20260506110517 | 63 | 203 | 1.7 | 4.3 | 0.00 | 0.00 | 0.00 | 83 | 1010.9 |
| 20260506105517 | 62 | 203 | 2.6 | 5.2 | 0.00 | 0.00 | 0.00 | 84 | 1010.8 |
| 20260506104517 | 62 | 180 | 3.5 | 6.1 | 0.00 | 0.00 | 0.00 | 85 | 1010.7 |
| 20260506103517 | 62 | 203 | 3.5 | 6.1 | 0.00 | 0.00 | 0.00 | 85 | 1010.8 |
| 20260506102519 | 62 | 180 | 3.5 | 6.1 | 0.00 | 0.00 | 0.00 | 85 | 1010.8 |
| 20260506101517 | 62 | 180 | 2.6 | 7.0 | 0.00 | 0.00 | 0.00 | 85 | 1010.7 |
| 20260506100517 | 62 | 203 | 4.3 | 7.8 | 0.00 | 0.00 | 0.00 | 85 | 1010.6 |
| 20260506095537 | 62 | 180 | 0.9 | 3.5 | 0.00 | 0.00 | 0.00 | 85 | 1010.5 |
| 20260506094517 | 62 | 180 | 1.7 | 4.3 | 0.00 | 0.00 | 0.00 | 84 | 1010.5 |
| 20260506093517 | 62 | 225 | 2.6 | 7.0 | 0.00 | 0.00 | 0.00 | 84 | 1010.6 |
| 20260506092517 | 62 | 203 | 5.2 | 9.6 | 0.00 | 0.00 | 0.00 | 84 | 1010.6 |
| 20260506091517 | 63 | 180 | 4.3 | 7.0 | 0.00 | 0.00 | 0.00 | 84 | 1010.7 |
| 20260506090517 | 63 | 225 | 4.3 | 8.7 | 0.00 | 0.00 | 0.00 | 83 | 1010.7 |
| 20260506085517 | 63 | 158 | 5.2 | 9.6 | 0.00 | 0.00 | 0.00 | 83 | 1010.8 |
| 20260506084517 | 63 | 158 | 3.5 | 5.2 | 0.00 | 0.00 | 0.00 | 83 | 1010.7 |
| 20260506083537 | 63 | 225 | 2.6 | 7.0 | 0.00 | 0.00 | 0.00 | 83 | 1010.8 |
| 20260506082516 | 63 | 180 | 2.6 | 5.2 | 0.00 | 0.00 | 0.00 | 82 | 1010.9 |
| 20260506081517 | 64 | 203 | 3.5 | 5.2 | 0.00 | 0.00 | 0.00 | 82 | 1010.9 |
| 20260506080517 | 64 | 180 | 4.3 | 6.1 | 0.00 | 0.00 | 0.00 | 82 | 1010.8 |
| 20260506073517 | 64 | 180 | 2.6 | 4.3 | 0.00 | 0.00 | 0.00 | 81 | 1010.9 |
| 20260506072517 | 64 | 180 | 1.7 | 6.1 | 0.00 | 0.00 | 0.00 | 81 | 1011.1 |
| 20260506071517 | 64 | 180 | 1.7 | 3.5 | 0.00 | 0.00 | 0.00 | 81 | 1011.2 |
| 20260506070517 | 64 | 180 | 3.5 | 6.1 | 0.00 | 0.00 | 0.00 | 81 | 1011.3 |
| 20260506062517 | 64 | 203 | 2.6 | 3.5 | 0.00 | 0.00 | 0.00 | 80 | 1011.2 |
| 20260506061517 | 64 | 225 | 0.9 | 2.6 | 0.00 | 0.00 | 0.00 | 80 | 1011.3 |
| 20260506060517 | 65 | 203 | 2.6 | 3.5 | 0.00 | 0.00 | 0.00 | 79 | 1011.1 |
| 20260506050517 | 67 | 68 | 1.7 | 3.5 | 0.00 | 0.00 | 0.00 | 74 | 1011.4 |
| 20260506044517 | 67 | 180 | 2.6 | 7.8 | 0.00 | 0.00 | 0.00 | 73 | 1011.6 |
| 20260506043517 | 67 | 180 | 2.6 | 4.3 | 0.00 | 0.00 | 0.00 | 73 | 1011.6 |
| 20260506042517 | 67 | 180 | 2.6 | 5.2 | 0.00 | 0.00 | 0.00 | 72 | 1011.5 |
| 20260506041517 | 67 | 180 | 2.6 | 4.3 | 0.00 | 0.00 | 0.00 | 72 | 1011.5 |